User: anonymous   Login
Location: Caltech
(34.1382°N, 118.1253°W)
Time: 22:20:25
(UTC-07:00)
Language:

BREEZE M DEB (TANK) - Orbit

View from above orbital plane
View from above orbital plane
View from above satellite
View from above satellite

Ground track
Ground track

The orbit data is extracted from the following two-line orbital elements,

1 33437U 08057B   17086.81230928 +.00002068 +00000-0 +42878-3 0  9993
2 33437 049.5780 315.7550 5000563 016.4035 355.2892 05.60208526169294
Epoch (UTC): 27 March 2017 19:29:43
Eccentricity: 0.5000563
inclination: 49.5780°
perigee height: 317 km
apogee height: 13710 km
right ascension of ascending node: 315.7550°
argument of perigee: 16.4035°
revolutions per day: 5.60208526
mean anomaly at epoch: 355.2892°
orbit number at epoch: 16929

The dashed part of the orbit path shows where the satellite is in the earth's shadow,  

DLR